Flag for Russia Weather past 2 weeks in Yuzhno-Sakhalinsk, Russia

Now
50 °F

Clear.


Feels Like: 46 °F
Forecast: 27 / 52 °F
Wind: 10 mph from South

Location: Yuzhno Airport-Sakhalinsk


UV Index: 3 (Moderate)

Visibility: N/A


Pressure: 29.92 "Hg

Humidity: 58%

Dew point: 36 °F

Location of Yuzhno-SakhalinskLocation

Historic Weather in Yuzhno-Sakhalinsk

°F

Yuzhno-Sakhalinsk temperature yesterday

Maximum temperature yesterday: 50 °F (at 3:30 PM)
Minimum temperature yesterday: 21 °F (at 6:00 AM)
Average temperature yesterday: 38 °F

Past Weeks' High & Low Weather Summary

 TemperatureHumidityPressure
High57 °F (Apr 14, 5:00 PM)100% (Apr 9, 3:30 PM)30.24 "Hg (Apr 9, 3:30 PM)
Low16 °F (Apr 8, 6:30 AM)27% (Apr 14, 5:30 PM)29.27 "Hg (Apr 6, 12:00 PM)
Average34 °F70%29.80 "Hg
* Reported Apr 6 12:00 Noon — Apr 21 12:30 PM, Yuzhno-Sakhalinsk, Weather by CustomWeather, © 2014

Note: Actual official high and low records may vary slightly from our data, if they occured in-between our weather recording intervals... More about our weather records

Advertising

Historic Weather Conditions — Data for Previous 24 hours

 ConditionsComfort  
Time TempWeatherWind HumidityBarometerVisibility
12:30 PM
Apr 21
48 °FClear.6 mph62%29.92 "HgN/A
12:00 PM48 °FClear.6 mph58%29.95 "HgN/A
11:30 AM46 °FClear.6 mph62%29.95 "HgN/A
11:00 AM45 °FClear.3 mph66%29.95 "HgN/A
10:30 AM45 °FClear.8 mph66%29.98 "HgN/A
10:00 AM43 °FClear.6 mph76%29.98 "HgN/A
9:30 AM41 °FClear.3 mph81%29.98 "HgN/A
9:00 AM39 °FClear.3 mph87%29.98 "HgN/A
8:00 AM34 °FClear.No wind93%29.98 "HgN/A
7:30 AM32 °FPassing clouds.No wind93%29.98 "HgN/A
7:00 AM32 °FPassing clouds.No wind93%29.98 "HgN/A
6:30 AM34 °FPassing clouds.1 mph87%29.98 "HgN/A
6:00 AM37 °FPassing clouds.No wind81%29.98 "HgN/A
5:00 AM37 °FPassing clouds.1 mph81%30.01 "HgN/A
4:00 AM37 °FPassing clouds.3 mph87%30.01 "HgN/A
3:00 AM37 °FPassing clouds.3 mph87%30.01 "HgN/A
2:00 AM37 °FPassing clouds.6 mph87%30.01 "HgN/A
1:00 AM37 °FPassing clouds.3 mph87%30.01 "HgN/A
12:00 AM37 °FPassing clouds.3 mph87%30.04 "HgN/A
11:00 PM
Apr 20
37 °FPassing clouds.3 mph81%30.04 "HgN/A
10:00 PM36 °FClear.8 mph87%30.04 "HgN/A
9:30 PM37 °FClear.13 mph81%30.04 "HgN/A
9:00 PM39 °FClear.10 mph75%30.04 "HgN/A
8:30 PM39 °FClear.8 mph75%30.04 "HgN/A
8:00 PM41 °FClear.6 mph70%30.04 "HgN/A
7:30 PM45 °FClear.6 mph61%30.04 "HgN/A
7:00 PM45 °FClear.8 mph66%30.04 "HgN/A
6:30 PM46 °FClear.10 mph62%30.04 "HgN/A
6:00 PM48 °FClear.10 mph58%30.04 "HgN/A
5:30 PM48 °FClear.13 mph54%30.04 "HgN/A
5:00 PM50 °FClear.13 mph50%30.04 "HgN/A
4:30 PM50 °FClear.10 mph54%30.04 "HgN/A
4:00 PM50 °FClear.10 mph50%30.04 "HgN/A
3:30 PM50 °FClear.10 mph50%30.04 "HgN/A
3:00 PM48 °FClear.13 mph58%30.07 "HgN/A
2:30 PM46 °FClear.15 mph62%30.07 "HgN/A
1:30 PM45 °FSunny.10 mph66%30.07 "HgN/A
1:00 PM48 °FSunny.8 mph54%30.07 "HgN/A
Weather by CustomWeather, © 2014

See weather overview